Time,TemperatureF,DewpointF,PressureIn,WindDirection,WindDirectionDegrees,WindSpeedMPH,WindSpeedGustMPH,Humidity,HourlyPrecipIn,Conditions,Clouds,dailyrainin,SolarRadiationWatts/m^2,SoftwareType,DateUTC
2013-08-14 00:01:00,72.6,67.8,29.98,NE,40,0.0,0.0,85,0.00,,CLR,0.00,0.00,VWS V14.01,2013-08-14 05:01:00,
2013-08-14 00:06:00,72.6,67.8,29.98,NE,40,0.0,0.0,85,0.00,,CLR,0.00,0.00,VWS V14.01,2013-08-14 05:06:00,
2013-08-14 00:11:00,72.6,67.8,29.98,NE,40,0.0,0.0,85,0.00,,CLR,0.00,0.00,VWS V14.01,2013-08-14 05:11:00,
2013-08-14 00:16:00,72.6,68.2,29.98,NE,40,2.0,3.0,86,0.00,,CLR,0.00,0.00,VWS V14.01,2013-08-14 05:16:00,
2013-08-14 00:21:00,72.5,67.7,29.98,NE,38,4.0,5.0,85,0.00,,CLR,0.00,0.00,VWS V14.01,2013-08-14 05:21:00,
2013-08-14 00:26:00,72.3,67.5,29.98,NE,38,0.0,6.0,85,0.00,,CLR,0.00,0.00,VWS V14.01,2013-08-14 05:26:00,
2013-08-14 00:31:00,72.1,67.3,29.99,NE,38,0.0,0.0,85,0.00,,CLR,0.00,0.00,VWS V14.01,2013-08-14 05:31:00,
2013-08-14 00:36:00,72.1,67.3,29.99,NE,38,4.0,4.0,85,0.00,,CLR,0.00,0.00,VWS V14.01,2013-08-14 05:36:00,
2013-08-14 00:41:00,71.8,67.1,29.99,NE,40,2.0,4.0,85,0.00,,CLR,0.00,0.00,VWS V14.01,2013-08-14 05:41:00,
2013-08-14 00:46:00,71.6,66.5,29.99,NE,40,0.0,6.0,84,0.00,,CLR,0.00,0.00,VWS V14.01,2013-08-14 05:46:00,
2013-08-14 00:51:00,71.4,66.3,29.99,NE,44,1.0,3.0,84,0.00,,CLR,0.00,0.00,VWS V14.01,2013-08-14 05:51:00,
2013-08-14 00:56:00,71.3,65.9,29.99,NE,41,2.0,6.0,83,0.00,,CLR,0.00,0.00,VWS V14.01,2013-08-14 05:56:00,
2013-08-14 01:01:00,71.1,65.7,29.98,NE,40,2.0,2.0,83,0.00,,CLR,0.00,0.00,VWS V14.01,2013-08-14 06:01:00,
2013-08-14 01:06:00,71.1,65.7,29.98,NE,36,3.0,6.0,83,0.00,,CLR,0.00,0.00,VWS V14.01,2013-08-14 06:06:00,
2013-08-14 01:11:00,71.1,65.3,29.98,NE,39,0.0,0.0,82,0.00,,CLR,0.00,0.00,VWS V14.01,2013-08-14 06:11:00,
2013-08-14 01:16:00,71.1,65.3,29.98,NE,39,0.0,0.0,82,0.00,,CLR,0.00,0.00,VWS V14.01,2013-08-14 06:16:00,
2013-08-14 01:21:00,71.1,65.3,29.98,NE,39,0.0,0.0,82,0.00,,CLR,0.00,0.00,VWS V14.01,2013-08-14 06:21:00,
2013-08-14 01:26:00,70.9,65.1,29.98,NE,39,0.0,0.0,82,0.00,,CLR,0.00,0.00,VWS V14.01,2013-08-14 06:26:00,
2013-08-14 01:31:00,70.9,64.8,29.99,NE,38,2.0,2.0,81,0.00,,CLR,0.00,0.00,VWS V14.01,2013-08-14 06:31:00,
2013-08-14 01:36:00,70.7,64.6,29.99,NE,38,0.0,3.0,81,0.00,,CLR,0.00,0.00,VWS V14.01,2013-08-14 06:36:00,
2013-08-14 01:41:00,70.7,64.6,29.99,NE,38,0.0,0.0,81,0.00,,CLR,0.00,0.00,VWS V14.01,2013-08-14 06:41:00,
2013-08-14 01:46:00,70.6,64.1,29.98,NE,38,0.0,5.0,80,0.00,,CLR,0.00,0.00,VWS V14.01,2013-08-14 06:46:00,
2013-08-14 01:51:00,70.6,64.1,29.98,NE,38,4.0,5.0,80,0.00,,CLR,0.00,0.00,VWS V14.01,2013-08-14 06:51:00,
2013-08-14 01:56:00,70.4,63.9,29.98,NE,37,2.0,6.0,80,0.00,,CLR,0.00,0.00,VWS V14.01,2013-08-14 06:56:00,
2013-08-14 02:01:00,70.2,63.8,29.98,NE,38,4.0,5.0,80,0.00,,CLR,0.00,0.00,VWS V14.01,2013-08-14 07:01:00,
2013-08-14 02:06:00,70.2,63.8,29.98,NE,34,0.0,6.0,80,0.00,,CLR,0.00,0.00,VWS V14.01,2013-08-14 07:06:00,
2013-08-14 02:11:00,70.1,63.3,29.98,NE,34,4.0,7.0,79,0.00,,CLR,0.00,0.00,VWS V14.01,2013-08-14 07:11:00,
2013-08-14 02:16:00,70.1,63.3,29.97,NE,38,0.0,7.0,79,0.00,,CLR,0.00,0.00,VWS V14.01,2013-08-14 07:16:00,
2013-08-14 02:21:00,70.1,63.3,29.97,NE,34,6.0,6.0,79,0.00,,CLR,0.00,0.00,VWS V14.01,2013-08-14 07:21:00,
2013-08-14 02:26:00,70.1,63.3,29.97,NE,36,0.0,6.0,79,0.00,,CLR,0.00,0.00,VWS V14.01,2013-08-14 07:26:00,
2013-08-14 02:31:00,70.1,63.3,29.97,NE,35,0.0,0.0,79,0.00,,CLR,0.00,0.00,VWS V14.01,2013-08-14 07:31:00,
2013-08-14 02:36:00,69.9,63.1,29.97,NE,35,0.0,6.0,79,0.00,,CLR,0.00,0.00,VWS V14.01,2013-08-14 07:36:00,
2013-08-14 02:41:00,69.9,63.1,29.97,NE,35,0.0,0.0,79,0.00,,CLR,0.00,0.00,VWS V14.01,2013-08-14 07:41:00,
2013-08-14 02:46:00,69.9,63.1,29.96,NE,36,0.0,5.0,79,0.00,,CLR,0.00,0.00,VWS V14.01,2013-08-14 07:46:00,
2013-08-14 02:51:00,69.7,62.9,29.96,NE,36,0.0,0.0,79,0.00,,CLR,0.00,0.00,VWS V14.01,2013-08-14 07:51:00,
2013-08-14 02:56:00,69.7,62.9,29.96,NE,36,0.0,3.0,79,0.00,,CLR,0.00,0.00,VWS V14.01,2013-08-14 07:56:00,
2013-08-14 03:01:00,69.7,62.9,29.97,NE,36,0.0,0.0,79,0.00,,CLR,0.00,0.00,VWS V14.01,2013-08-14 08:01:00,
2013-08-14 03:06:00,69.7,62.9,29.97,NE,36,0.0,0.0,79,0.00,,CLR,0.00,0.00,VWS V14.01,2013-08-14 08:06:00,
2013-08-14 03:11:00,69.7,62.9,29.97,NE,36,0.0,0.0,79,0.00,,CLR,0.00,0.00,VWS V14.01,2013-08-14 08:11:00,
2013-08-14 03:16:00,69.6,62.8,29.97,NE,36,0.0,0.0,79,0.00,,CLR,0.00,0.00,VWS V14.01,2013-08-14 08:16:00,
2013-08-14 03:21:00,69.6,62.8,29.97,NE,36,0.0,0.0,79,0.00,,CLR,0.00,0.00,VWS V14.01,2013-08-14 08:21:00,
2013-08-14 03:26:00,69.4,63.0,29.97,NE,36,0.0,0.0,80,0.00,,CLR,0.00,0.00,VWS V14.01,2013-08-14 08:26:00,
2013-08-14 03:31:00,69.2,62.8,29.98,NE,36,0.0,0.0,80,0.00,,CLR,0.00,0.00,VWS V14.01,2013-08-14 08:31:00,
2013-08-14 03:36:00,69.1,62.7,29.98,NE,36,0.0,0.0,80,0.00,,CLR,0.00,0.00,VWS V14.01,2013-08-14 08:36:00,
2013-08-14 03:41:00,69.1,62.7,29.98,NE,36,0.0,0.0,80,0.00,,CLR,0.00,0.00,VWS V14.01,2013-08-14 08:41:00,
2013-08-14 03:46:00,68.9,62.5,29.98,NE,36,0.0,0.0,80,0.00,,CLR,0.00,0.00,VWS V14.01,2013-08-14 08:46:00,
2013-08-14 03:51:00,68.7,62.3,29.98,NE,36,0.0,0.0,80,0.00,,CLR,0.00,0.00,VWS V14.01,2013-08-14 08:51:00,
2013-08-14 03:56:00,68.6,62.2,29.98,NE,36,0.0,0.0,80,0.00,,CLR,0.00,0.00,VWS V14.01,2013-08-14 08:56:00,
2013-08-14 04:01:00,68.6,62.5,29.98,NE,36,0.0,0.0,81,0.00,,CLR,0.00,0.00,VWS V14.01,2013-08-14 09:01:00,
2013-08-14 04:06:00,68.4,62.3,29.98,NE,36,0.0,0.0,81,0.00,,CLR,0.00,0.00,VWS V14.01,2013-08-14 09:06:00,
2013-08-14 04:11:00,68.2,62.2,29.98,NE,36,0.0,0.0,81,0.00,,CLR,0.00,0.00,VWS V14.01,2013-08-14 09:11:00,
2013-08-14 04:16:00,68.2,62.2,29.98,NE,36,0.0,0.0,81,0.00,,CLR,0.00,0.00,VWS V14.01,2013-08-14 09:16:00,
2013-08-14 04:21:00,68.1,62.1,29.98,NE,36,0.0,0.0,81,0.00,,CLR,0.00,0.00,VWS V14.01,2013-08-14 09:21:00,
2013-08-14 04:26:00,68.1,62.4,29.98,NE,36,0.0,0.0,82,0.00,,CLR,0.00,0.00,VWS V14.01,2013-08-14 09:26:00,
2013-08-14 04:31:00,68.1,62.4,29.98,NE,36,0.0,0.0,82,0.00,,CLR,0.00,0.00,VWS V14.01,2013-08-14 09:31:00,
2013-08-14 04:36:00,67.9,62.2,29.98,NE,36,0.0,0.0,82,0.00,,CLR,0.00,0.00,VWS V14.01,2013-08-14 09:36:00,
2013-08-14 04:41:00,67.9,62.2,29.98,NE,36,0.0,0.0,82,0.00,,CLR,0.00,0.00,VWS V14.01,2013-08-14 09:41:00,
2013-08-14 04:46:00,67.7,62.4,29.99,NE,36,0.0,0.0,83,0.00,,CLR,0.00,0.00,VWS V14.01,2013-08-14 09:46:00,
2013-08-14 04:51:00,67.7,62.4,29.99,NE,36,0.0,0.0,83,0.00,,CLR,0.00,0.00,VWS V14.01,2013-08-14 09:51:00,
2013-08-14 04:56:00,67.7,62.4,29.99,NE,36,0.0,0.0,83,0.00,,CLR,0.00,0.00,VWS V14.01,2013-08-14 09:56:00,
2013-08-14 05:01:00,67.6,62.3,29.99,NE,36,0.0,0.0,83,0.00,,CLR,0.00,0.00,VWS V14.01,2013-08-14 10:01:00,
2013-08-14 05:06:00,67.6,62.3,29.99,NE,36,0.0,0.0,83,0.00,,CLR,0.00,0.00,VWS V14.01,2013-08-14 10:06:00,
2013-08-14 05:11:00,67.4,62.1,29.99,NE,36,0.0,0.0,83,0.00,,CLR,0.00,0.00,VWS V14.01,2013-08-14 10:11:00,
2013-08-14 05:16:00,67.4,62.1,29.99,NE,36,0.0,0.0,83,0.00,,CLR,0.00,0.00,VWS V14.01,2013-08-14 10:16:00,
2013-08-14 05:21:00,67.4,62.4,29.99,NE,36,0.0,0.0,84,0.00,,CLR,0.00,0.00,VWS V14.01,2013-08-14 10:21:00,
2013-08-14 05:26:00,67.2,62.2,29.99,NE,36,0.0,3.0,84,0.00,,CLR,0.00,0.00,VWS V14.01,2013-08-14 10:26:00,
2013-08-14 05:31:00,67.2,62.2,29.99,NE,36,0.0,0.0,84,0.00,,CLR,0.00,0.00,VWS V14.01,2013-08-14 10:31:00,
2013-08-14 05:36:00,67.2,62.2,29.99,NE,36,0.0,0.0,84,0.00,,CLR,0.00,0.00,VWS V14.01,2013-08-14 10:36:00,
2013-08-14 05:41:00,67.2,62.2,29.99,NE,36,0.0,0.0,84,0.00,,CLR,0.00,0.00,VWS V14.01,2013-08-14 10:41:00,
2013-08-14 05:46:00,67.2,62.2,29.99,NE,36,0.0,0.0,84,0.00,,CLR,0.00,0.00,VWS V14.01,2013-08-14 10:46:00,
2013-08-14 05:51:00,67.1,62.1,29.99,NE,36,0.0,0.0,84,0.00,,CLR,0.00,0.00,VWS V14.01,2013-08-14 10:51:00,
2013-08-14 05:56:00,67.1,62.1,29.99,NE,36,0.0,0.0,84,0.00,,CLR,0.00,0.00,VWS V14.01,2013-08-14 10:56:00,
2013-08-14 06:01:00,67.1,62.1,29.99,NE,36,0.0,0.0,84,0.00,,CLR,0.00,0.00,VWS V14.01,2013-08-14 11:01:00,
2013-08-14 06:06:00,66.9,61.9,29.99,NE,36,0.0,0.0,84,0.00,,CLR,0.00,0.00,VWS V14.01,2013-08-14 11:06:00,
2013-08-14 06:11:00,66.9,61.9,29.99,NE,36,0.0,0.0,84,0.00,,CLR,0.00,0.00,VWS V14.01,2013-08-14 11:11:00,
2013-08-14 06:16:00,66.9,61.9,29.99,NE,36,0.0,4.0,84,0.00,,CLR,0.00,0.00,VWS V14.01,2013-08-14 11:16:00,
2013-08-14 06:21:00,66.9,62.2,29.99,NE,36,0.0,0.0,85,0.00,,CLR,0.00,0.00,VWS V14.01,2013-08-14 11:21:00,
2013-08-14 06:26:00,66.9,62.2,29.99,NE,36,0.0,0.0,85,0.00,,CLR,0.00,0.00,VWS V14.01,2013-08-14 11:26:00,
2013-08-14 06:31:00,66.9,62.2,29.99,NE,36,0.0,0.0,85,0.00,,CLR,0.00,0.00,VWS V14.01,2013-08-14 11:31:00,
2013-08-14 06:36:00,66.9,62.2,29.99,NE,36,0.0,0.0,85,0.00,,CLR,0.00,0.00,VWS V14.01,2013-08-14 11:36:00,
2013-08-14 06:41:00,66.7,62.0,29.99,NE,36,0.0,0.0,85,0.00,,CLR,0.00,0.00,VWS V14.01,2013-08-14 11:41:00,
2013-08-14 06:46:00,66.7,62.0,30.00,NE,36,0.0,0.0,85,0.00,,CLR,0.00,5.75,VWS V14.01,2013-08-14 11:46:00,
2013-08-14 06:51:00,66.7,62.0,30.00,NE,36,0.0,0.0,85,0.00,,CLR,0.00,10.35,VWS V14.01,2013-08-14 11:51:00,
2013-08-14 06:56:00,66.7,62.0,30.00,NE,36,0.0,3.0,85,0.00,,CLR,0.00,16.10,VWS V14.01,2013-08-14 11:56:00,
2013-08-14 07:01:00,66.7,62.0,30.01,NE,36,0.0,0.0,85,0.00,,CLR,0.00,20.70,VWS V14.01,2013-08-14 12:01:00,
2013-08-14 07:06:00,66.9,62.2,30.01,NE,36,0.0,1.0,85,0.00,,CLR,0.00,24.15,VWS V14.01,2013-08-14 12:06:00,
2013-08-14 07:11:00,66.9,62.2,30.01,NE,35,0.0,0.0,85,0.00,,CLR,0.00,29.90,VWS V14.01,2013-08-14 12:11:00,
2013-08-14 07:16:00,66.9,62.2,30.01,NE,35,1.0,4.0,85,0.00,,CLR,0.00,34.50,VWS V14.01,2013-08-14 12:16:00,
2013-08-14 07:21:00,66.9,62.2,30.01,NE,35,0.0,0.0,85,0.00,,CLR,0.00,37.95,VWS V14.01,2013-08-14 12:21:00,
2013-08-14 07:26:00,67.1,62.5,30.01,NE,35,2.0,3.0,85,0.00,,CLR,0.00,42.55,VWS V14.01,2013-08-14 12:26:00,
2013-08-14 07:31:00,67.1,62.5,30.02,NE,36,1.0,2.0,85,0.00,,CLR,0.00,93.15,VWS V14.01,2013-08-14 12:31:00,
2013-08-14 07:36:00,67.4,63.1,30.02,NE,42,2.0,4.0,86,0.00,,CLR,0.00,112.70,VWS V14.01,2013-08-14 12:36:00,
2013-08-14 07:41:00,67.7,63.0,30.02,NE,39,3.0,5.0,85,0.00,,CLR,0.00,139.15,VWS V14.01,2013-08-14 12:41:00,
2013-08-14 07:46:00,67.9,62.9,30.02,NE,38,0.0,5.0,84,0.00,,CLR,0.00,157.55,VWS V14.01,2013-08-14 12:46:00,
2013-08-14 07:51:00,68.2,62.8,30.02,NE,56,0.0,5.0,83,0.00,,CLR,0.00,173.65,VWS V14.01,2013-08-14 12:51:00,
2013-08-14 07:56:00,68.4,63.0,30.02,NE,46,3.0,6.0,83,0.00,,CLR,0.00,192.05,VWS V14.01,2013-08-14 12:56:00,
2013-08-14 08:01:00,68.7,63.0,30.02,NE,53,3.0,3.0,82,0.00,,CLR,0.00,208.15,VWS V14.01,2013-08-14 13:01:00,
2013-08-14 08:06:00,68.9,63.2,30.02,NE,42,3.0,9.0,82,0.00,,CLR,0.00,221.95,VWS V14.01,2013-08-14 13:06:00,
2013-08-14 08:11:00,69.1,63.0,30.02,ENE,66,0.0,0.0,81,0.00,,CLR,0.00,238.05,VWS V14.01,2013-08-14 13:11:00,
2013-08-14 08:16:00,69.4,63.3,30.02,ENE,65,0.0,9.0,81,0.00,,CLR,0.00,258.75,VWS V14.01,2013-08-14 13:16:00,
2013-08-14 08:21:00,69.7,63.3,30.02,ENE,78,2.0,3.0,80,0.00,,CLR,0.00,274.85,VWS V14.01,2013-08-14 13:21:00,
2013-08-14 08:26:00,69.9,63.5,30.02,ENE,74,0.0,6.0,80,0.00,,CLR,0.00,290.95,VWS V14.01,2013-08-14 13:26:00,
2013-08-14 08:31:00,70.1,63.7,30.02,ENE,66,0.0,2.0,80,0.00,,CLR,0.00,311.65,VWS V14.01,2013-08-14 13:31:00,
2013-08-14 08:36:00,70.4,63.6,30.02,ENE,67,0.0,6.0,79,0.00,,CLR,0.00,320.85,VWS V14.01,2013-08-14 13:36:00,
2013-08-14 08:41:00,70.6,63.8,30.02,ESE,105,3.0,3.0,79,0.00,,CLR,0.00,343.85,VWS V14.01,2013-08-14 13:41:00,
2013-08-14 08:46:00,70.7,63.9,30.03,East,86,0.0,6.0,79,0.00,,CLR,0.00,362.25,VWS V14.01,2013-08-14 13:46:00,
2013-08-14 08:51:00,71.1,63.9,30.03,East,98,5.0,5.0,78,0.00,,CLR,0.00,379.50,VWS V14.01,2013-08-14 13:51:00,
2013-08-14 08:56:00,71.1,63.9,30.03,ENE,69,0.0,9.0,78,0.00,,CLR,0.00,397.90,VWS V14.01,2013-08-14 13:56:00,
2013-08-14 09:01:00,71.9,64.3,30.04,ENE,75,0.0,0.0,77,0.00,,CLR,0.00,418.60,VWS V14.01,2013-08-14 14:01:00,
2013-08-14 09:06:00,72.1,64.1,30.04,ENE,63,0.0,7.0,76,0.00,,CLR,0.00,430.10,VWS V14.01,2013-08-14 14:06:00,
2013-08-14 09:11:00,72.1,64.5,30.04,East,85,0.0,4.0,77,0.00,,CLR,0.00,448.50,VWS V14.01,2013-08-14 14:11:00,
2013-08-14 09:16:00,73.0,65.4,30.04,East,88,0.0,4.0,77,0.00,,CLR,0.00,469.20,VWS V14.01,2013-08-14 14:16:00,
2013-08-14 09:21:00,73.1,64.3,30.04,East,92,2.0,3.0,74,0.00,,CLR,0.00,485.30,VWS V14.01,2013-08-14 14:21:00,
2013-08-14 09:26:00,73.3,64.9,30.04,East,92,0.0,3.0,75,0.00,,CLR,0.00,501.40,VWS V14.01,2013-08-14 14:26:00,
2013-08-14 09:31:00,73.8,64.6,30.04,East,94,2.0,3.0,73,0.00,,CLR,0.00,515.20,VWS V14.01,2013-08-14 14:31:00,
2013-08-14 09:36:00,73.8,65.0,30.04,East,94,0.0,3.0,74,0.00,,CLR,0.00,531.30,VWS V14.01,2013-08-14 14:36:00,
2013-08-14 09:41:00,74.4,65.2,30.04,East,94,0.0,0.0,73,0.00,,CLR,0.00,555.45,VWS V14.01,2013-08-14 14:41:00,
2013-08-14 09:46:00,74.7,64.7,30.04,East,94,0.0,4.0,71,0.00,,CLR,0.00,579.60,VWS V14.01,2013-08-14 14:46:00,
2013-08-14 09:51:00,74.7,65.1,30.04,East,94,0.0,0.0,72,0.00,,CLR,0.00,509.45,VWS V14.01,2013-08-14 14:51:00,
2013-08-14 09:56:00,74.9,65.3,30.04,East,93,0.0,3.0,72,0.00,,CLR,0.00,626.75,VWS V14.01,2013-08-14 14:56:00,
2013-08-14 10:01:00,75.1,65.1,30.05,NE,46,0.0,0.0,71,0.00,,CLR,0.00,703.80,VWS V14.01,2013-08-14 15:01:00,
2013-08-14 10:06:00,75.9,65.0,30.05,ENE,72,0.0,4.0,69,0.00,,CLR,0.00,760.15,VWS V14.01,2013-08-14 15:06:00,
2013-08-14 10:11:00,76.3,65.0,30.05,East,79,0.0,0.0,68,0.00,,CLR,0.00,571.55,VWS V14.01,2013-08-14 15:11:00,
2013-08-14 10:16:00,75.6,64.3,30.05,ENE,78,0.0,3.0,68,0.00,,CLR,0.00,351.90,VWS V14.01,2013-08-14 15:16:00,
2013-08-14 10:21:00,76.1,65.6,30.05,East,81,0.0,0.0,70,0.00,,CLR,0.00,851.00,VWS V14.01,2013-08-14 15:21:00,
2013-08-14 10:26:00,75.8,64.5,30.05,East,80,0.0,5.0,68,0.00,,CLR,0.00,272.55,VWS V14.01,2013-08-14 15:26:00,
2013-08-14 10:31:00,76.1,65.2,30.05,East,90,0.0,3.0,69,0.00,,CLR,0.00,903.90,VWS V14.01,2013-08-14 15:31:00,
2013-08-14 10:36:00,77.0,65.6,30.05,East,91,0.0,3.0,68,0.00,,CLR,0.00,834.90,VWS V14.01,2013-08-14 15:36:00,
2013-08-14 10:41:00,77.5,65.3,30.05,SSE,167,0.0,3.0,66,0.00,,CLR,0.00,437.00,VWS V14.01,2013-08-14 15:41:00,
2013-08-14 10:46:00,77.2,65.8,30.05,SE,141,2.0,7.0,68,0.00,,CLR,0.00,624.45,VWS V14.01,2013-08-14 15:46:00,
2013-08-14 10:51:00,77.5,65.3,30.05,SSE,148,0.0,1.0,66,0.00,,CLR,0.00,485.30,VWS V14.01,2013-08-14 15:51:00,
2013-08-14 10:56:00,77.9,66.5,30.05,SE,133,0.0,4.0,68,0.00,,CLR,0.00,909.65,VWS V14.01,2013-08-14 15:56:00,
2013-08-14 11:01:00,78.1,66.3,30.05,SE,132,0.0,0.0,67,0.00,,CLR,0.00,897.00,VWS V14.01,2013-08-14 16:01:00,
2013-08-14 11:06:00,78.4,65.7,30.05,SE,133,5.0,6.0,65,0.00,,CLR,0.00,887.80,VWS V14.01,2013-08-14 16:06:00,
2013-08-14 11:11:00,78.8,65.2,30.05,SE,132,0.0,0.0,63,0.00,,CLR,0.00,287.50,VWS V14.01,2013-08-14 16:11:00,
2013-08-14 11:16:00,78.1,65.8,30.05,SE,129,0.0,3.0,66,0.00,,CLR,0.00,1006.25,VWS V14.01,2013-08-14 16:16:00,
2013-08-14 11:21:00,78.3,65.6,30.05,SSE,156,0.0,0.0,65,0.00,,CLR,0.00,507.15,VWS V14.01,2013-08-14 16:21:00,
2013-08-14 11:26:00,78.3,66.0,30.05,SSE,153,2.0,6.0,66,0.00,,CLR,0.00,448.50,VWS V14.01,2013-08-14 16:26:00,
2013-08-14 11:31:00,78.4,64.8,30.05,SSE,150,0.0,3.0,63,0.00,,CLR,0.00,378.35,VWS V14.01,2013-08-14 16:31:00,
2013-08-14 11:36:00,78.3,65.6,30.05,SSE,148,0.0,4.0,65,0.00,,CLR,0.00,523.25,VWS V14.01,2013-08-14 16:36:00,
2013-08-14 11:41:00,78.8,65.2,30.05,SE,144,0.0,2.0,63,0.00,,CLR,0.00,448.50,VWS V14.01,2013-08-14 16:41:00,
2013-08-14 11:46:00,78.8,65.6,30.05,SSE,158,0.0,6.0,64,0.00,,CLR,0.00,354.20,VWS V14.01,2013-08-14 16:46:00,
2013-08-14 11:51:00,79.2,65.5,30.05,SSE,153,0.0,0.0,63,0.00,,CLR,0.00,1048.80,VWS V14.01,2013-08-14 16:51:00,
2013-08-14 11:56:00,78.4,66.1,30.05,East,86,1.0,7.0,66,0.00,,CLR,0.00,736.00,VWS V14.01,2013-08-14 16:56:00,
2013-08-14 12:01:00,79.2,66.0,30.05,SE,133,0.0,4.0,64,0.00,,BKN044,0.00,250.70,VWS V14.01,2013-08-14 17:01:00,
2013-08-14 12:06:00,78.3,65.6,30.05,ENE,68,1.0,5.0,65,0.00,,BKN044,0.00,330.05,VWS V14.01,2013-08-14 17:06:00,
2013-08-14 12:11:00,78.3,65.6,30.05,East,98,0.0,0.0,65,0.00,,BKN044,0.00,338.10,VWS V14.01,2013-08-14 17:11:00,
2013-08-14 12:16:00,78.1,66.3,30.05,ENE,58,0.0,4.0,67,0.00,,BKN044,0.00,359.95,VWS V14.01,2013-08-14 17:16:00,
2013-08-14 12:21:00,78.6,65.9,30.05,ENE,60,0.0,0.0,65,0.00,,BKN044,0.00,288.65,VWS V14.01,2013-08-14 17:21:00,
2013-08-14 12:26:00,78.1,66.3,30.05,ENE,59,0.0,2.0,67,0.00,,BKN044,0.00,254.15,VWS V14.01,2013-08-14 17:26:00,
2013-08-14 12:31:00,78.1,65.8,30.04,ENE,62,0.0,0.0,66,0.00,,BKN044,0.00,253.00,VWS V14.01,2013-08-14 17:31:00,
2013-08-14 12:36:00,78.3,65.6,30.04,ENE,61,0.0,1.0,65,0.00,,BKN044,0.00,1133.90,VWS V14.01,2013-08-14 17:36:00,
2013-08-14 12:41:00,79.4,65.3,30.04,East,88,0.0,0.0,62,0.00,,BKN044,0.00,1120.10,VWS V14.01,2013-08-14 17:41:00,
2013-08-14 12:46:00,79.6,65.4,30.04,ENE,64,0.0,5.0,62,0.00,,BKN044,0.00,319.70,VWS V14.01,2013-08-14 17:46:00,
2013-08-14 12:51:00,79.2,65.5,30.04,ENE,65,0.0,1.0,63,0.00,,BKN044,0.00,1077.55,VWS V14.01,2013-08-14 17:51:00,
2013-08-14 12:56:00,80.1,65.0,30.04,SE,138,1.0,7.0,60,0.00,,BKN044,0.00,236.90,VWS V14.01,2013-08-14 17:56:00,
2013-08-14 13:01:00,80.1,65.9,30.04,SE,138,0.0,0.0,62,0.00,,FEW024,0.00,330.05,VWS V14.01,2013-08-14 18:01:00,
2013-08-14 13:06:00,79.6,65.4,30.04,SE,137,0.0,0.0,62,0.00,,FEW024,0.00,173.65,VWS V14.01,2013-08-14 18:06:00,
2013-08-14 13:11:00,79.2,65.1,30.04,SE,138,0.0,0.0,62,0.00,,FEW024,0.00,242.65,VWS V14.01,2013-08-14 18:11:00,
2013-08-14 13:17:00,79.4,65.3,30.02,SE,133,0.0,1.0,62,0.00,,FEW024,0.00,1089.05,VWS V14.01,2013-08-14 18:17:00,
2013-08-14 13:22:00,80.3,63.7,30.02,ENE,71,3.0,4.0,57,0.00,,FEW024,0.00,1114.35,VWS V14.01,2013-08-14 18:22:00,
2013-08-14 13:27:00,80.5,64.4,30.02,ENE,69,0.0,4.0,58,0.00,,FEW024,0.00,1063.75,VWS V14.01,2013-08-14 18:27:00,
2013-08-14 13:32:00,81.0,65.3,30.02,ENE,69,0.0,1.0,59,0.00,,FEW024,0.00,1063.75,VWS V14.01,2013-08-14 18:32:00,
2013-08-14 13:37:00,82.2,62.3,30.02,East,88,0.0,2.0,51,0.00,,FEW024,0.00,1069.50,VWS V14.01,2013-08-14 18:37:00,
2013-08-14 13:42:00,81.4,63.2,30.02,SE,128,0.0,3.0,54,0.00,,FEW024,0.00,263.35,VWS V14.01,2013-08-14 18:42:00,
2013-08-14 13:48:00,80.9,62.7,30.02,SE,127,0.0,3.0,54,0.00,,FEW024,0.00,1079.85,VWS V14.01,2013-08-14 18:48:00,
2013-08-14 13:53:00,81.6,63.9,30.02,SE,127,0.0,0.0,55,0.00,,FEW024,0.00,1048.80,VWS V14.01,2013-08-14 18:53:00,
2013-08-14 13:58:00,82.0,63.2,30.02,East,98,0.0,4.0,53,0.00,,FEW024,0.00,1061.45,VWS V14.01,2013-08-14 18:58:00,
2013-08-14 14:03:00,82.0,61.5,30.02,East,100,0.0,4.0,50,0.00,,SCT050,0.00,1039.60,VWS V14.01,2013-08-14 19:03:00,
2013-08-14 14:08:00,82.2,66.5,30.02,East,101,0.0,4.0,59,0.00,,SCT050,0.00,1029.25,VWS V14.01,2013-08-14 19:08:00,
2013-08-14 14:13:00,81.8,62.5,30.02,ESE,103,0.0,1.0,52,0.00,,SCT050,0.00,1008.55,VWS V14.01,2013-08-14 19:13:00,
2013-08-14 14:18:00,82.4,63.0,30.01,ESE,103,0.0,1.0,52,0.00,,SCT050,0.00,1055.70,VWS V14.01,2013-08-14 19:18:00,
2013-08-14 14:23:00,82.0,62.1,30.01,East,92,0.0,7.0,51,0.00,,SCT050,0.00,296.70,VWS V14.01,2013-08-14 19:23:00,
2013-08-14 14:29:00,81.8,62.5,30.01,ENE,75,0.0,7.0,52,0.00,,SCT050,0.00,1039.60,VWS V14.01,2013-08-14 19:29:00,
2013-08-14 14:34:00,83.0,64.7,30.00,East,80,0.0,1.0,54,0.00,,SCT050,0.00,1091.35,VWS V14.01,2013-08-14 19:34:00,
2013-08-14 14:39:00,82.4,64.1,30.00,ENE,78,0.0,2.0,54,0.00,,SCT050,0.00,335.80,VWS V14.01,2013-08-14 19:39:00,
2013-08-14 14:44:00,82.0,62.1,30.00,SE,144,0.0,6.0,51,0.00,,SCT050,0.00,293.25,VWS V14.01,2013-08-14 19:44:00,
2013-08-14 14:49:00,81.6,62.8,30.00,SE,141,0.0,6.0,53,0.00,,SCT050,0.00,277.15,VWS V14.01,2013-08-14 19:49:00,
2013-08-14 14:54:00,81.0,62.3,30.00,SE,128,0.0,4.0,53,0.00,,SCT050,0.00,354.20,VWS V14.01,2013-08-14 19:54:00,
2013-08-14 14:59:00,81.8,61.9,30.00,SE,128,0.0,4.0,51,0.00,,SCT050,0.00,994.75,VWS V14.01,2013-08-14 19:59:00,
2013-08-14 15:04:00,83.0,62.5,30.00,SE,128,0.0,0.0,50,0.00,,SCT045,0.00,1013.15,VWS V14.01,2013-08-14 20:04:00,
2013-08-14 15:09:00,83.0,63.6,30.00,ENE,70,0.0,10.0,52,0.00,,SCT045,0.00,1075.25,VWS V14.01,2013-08-14 20:09:00,
2013-08-14 15:14:00,82.8,62.8,30.00,ENE,73,0.0,2.0,51,0.00,,SCT045,0.00,315.10,VWS V14.01,2013-08-14 20:14:00,
2013-08-14 15:21:00,81.6,63.4,29.99,NE,41,0.0,2.0,54,0.00,,SCT045,0.00,236.90,VWS V14.01,2013-08-14 20:21:00,
2013-08-14 15:27:00,81.0,63.3,29.99,ENE,67,0.0,5.0,55,0.00,,SCT045,0.00,181.70,VWS V14.01,2013-08-14 20:27:00,
2013-08-14 15:32:00,80.3,62.2,29.99,ENE,67,0.0,3.0,54,0.00,,SCT045,0.00,256.45,VWS V14.01,2013-08-14 20:32:00,
2013-08-14 15:37:00,80.5,62.9,29.99,ENE,67,0.0,3.0,55,0.00,,SCT045,0.00,327.75,VWS V14.01,2013-08-14 20:37:00,
2013-08-14 15:42:00,81.6,62.8,29.99,ENE,57,2.0,2.0,53,0.00,,SCT045,0.00,285.20,VWS V14.01,2013-08-14 20:42:00,
2013-08-14 15:47:00,81.4,63.2,29.98,ENE,60,0.0,2.0,54,0.00,,SCT045,0.00,162.15,VWS V14.01,2013-08-14 20:47:00,
2013-08-14 15:52:00,80.9,62.2,29.98,ENE,61,0.0,0.0,53,0.00,,SCT045,0.00,194.35,VWS V14.01,2013-08-14 20:52:00,
2013-08-14 15:57:00,81.4,62.6,29.98,ENE,57,0.0,5.0,53,0.00,,SCT045,0.00,816.50,VWS V14.01,2013-08-14 20:57:00,
2013-08-14 16:02:00,82.2,62.3,29.97,NE,37,8.0,9.0,51,0.00,,BKN060,0.00,814.20,VWS V14.01,2013-08-14 21:02:00,
2013-08-14 16:07:00,82.2,62.3,29.97,NE,38,2.0,9.0,51,0.00,,BKN060,0.00,790.05,VWS V14.01,2013-08-14 21:07:00,
2013-08-14 16:12:00,82.2,60.6,29.97,ENE,78,1.0,4.0,48,0.00,,BKN060,0.00,640.55,VWS V14.01,2013-08-14 21:12:00,
2013-08-14 16:17:00,82.4,61.9,29.97,ENE,65,0.0,7.0,50,0.00,,BKN060,0.00,725.65,VWS V14.01,2013-08-14 21:17:00,
2013-08-14 16:22:00,82.4,61.3,29.97,NE,46,0.0,6.0,49,0.00,,BKN060,0.00,714.15,VWS V14.01,2013-08-14 21:22:00,
2013-08-14 16:27:00,82.4,61.9,29.97,ESE,121,0.0,6.0,50,0.00,,BKN060,0.00,151.80,VWS V14.01,2013-08-14 21:27:00,
2013-08-14 16:32:00,82.4,61.9,29.97,SE,140,0.0,3.0,50,0.00,,BKN060,0.00,672.75,VWS V14.01,2013-08-14 21:32:00,
2013-08-14 16:37:00,82.8,63.4,29.97,NE,49,0.0,6.0,52,0.00,,BKN060,0.00,671.60,VWS V14.01,2013-08-14 21:37:00,
2013-08-14 16:42:00,82.0,62.1,29.97,NE,52,6.0,6.0,51,0.00,,BKN060,0.00,232.30,VWS V14.01,2013-08-14 21:42:00,
2013-08-14 16:47:00,82.0,63.2,29.97,NE,42,1.0,7.0,53,0.00,,BKN060,0.00,661.25,VWS V14.01,2013-08-14 21:47:00,
2013-08-14 16:52:00,81.8,62.5,29.97,ENE,59,0.0,0.0,52,0.00,,BKN060,0.00,632.50,VWS V14.01,2013-08-14 21:52:00,
2013-08-14 16:57:00,82.0,62.7,29.97,ENE,60,3.0,4.0,52,0.00,,BKN060,0.00,129.95,VWS V14.01,2013-08-14 21:57:00,
2013-08-14 17:02:00,81.6,61.7,29.97,ENE,59,0.0,1.0,51,0.00,,BKN047,0.00,554.30,VWS V14.01,2013-08-14 22:02:00,
2013-08-14 17:07:00,81.4,61.5,29.97,ENE,62,0.0,7.0,51,0.00,,BKN047,0.00,175.95,VWS V14.01,2013-08-14 22:07:00,
2013-08-14 17:12:00,81.4,62.1,29.97,NE,51,0.0,0.0,52,0.00,,BKN047,0.00,560.05,VWS V14.01,2013-08-14 22:12:00,
2013-08-14 17:17:00,82.0,62.1,29.97,NE,46,3.0,7.0,51,0.00,,BKN047,0.00,546.25,VWS V14.01,2013-08-14 22:17:00,
2013-08-14 17:22:00,81.8,61.4,29.97,NE,51,0.0,9.0,50,0.00,,BKN047,0.00,488.75,VWS V14.01,2013-08-14 22:22:00,
2013-08-14 17:27:00,81.8,61.4,29.97,NE,53,7.0,9.0,50,0.00,,BKN047,0.00,464.60,VWS V14.01,2013-08-14 22:27:00,
2013-08-14 17:32:00,81.6,60.6,29.97,ESE,107,0.0,0.0,49,0.00,,BKN047,0.00,456.55,VWS V14.01,2013-08-14 22:32:00,
2013-08-14 17:37:00,81.6,61.2,29.97,NE,44,0.0,9.0,50,0.00,,BKN047,0.00,442.75,VWS V14.01,2013-08-14 22:37:00,
2013-08-14 17:42:00,81.6,61.7,29.97,NE,40,5.0,5.0,51,0.00,,BKN047,0.00,426.65,VWS V14.01,2013-08-14 22:42:00,
2013-08-14 17:47:00,81.6,61.7,29.97,ENE,69,0.0,7.0,51,0.00,,BKN047,0.00,402.50,VWS V14.01,2013-08-14 22:47:00,
2013-08-14 17:52:00,81.6,61.2,29.97,East,82,0.0,3.0,50,0.00,,BKN047,0.00,396.75,VWS V14.01,2013-08-14 22:52:00,
2013-08-14 17:57:00,81.4,60.4,29.97,ENE,61,0.0,6.0,49,0.00,,BKN047,0.00,381.80,VWS V14.01,2013-08-14 22:57:00,
2013-08-14 18:02:00,81.4,61.0,29.96,ENE,69,0.0,0.0,50,0.00,,BKN060,0.00,365.70,VWS V14.01,2013-08-14 23:02:00,
2013-08-14 18:07:00,81.4,60.4,29.96,East,81,0.0,6.0,49,0.00,,BKN060,0.00,151.80,VWS V14.01,2013-08-14 23:07:00,
2013-08-14 18:12:00,81.2,59.7,29.96,ENE,76,0.0,0.0,48,0.00,,BKN060,0.00,71.30,VWS V14.01,2013-08-14 23:12:00,
2013-08-14 18:17:00,81.2,59.7,29.96,East,80,6.0,7.0,48,0.00,,BKN060,0.00,82.80,VWS V14.01,2013-08-14 23:17:00,
2013-08-14 18:22:00,81.0,58.9,29.96,NE,36,0.0,10.0,47,0.00,,BKN060,0.00,77.05,VWS V14.01,2013-08-14 23:22:00,
2013-08-14 18:27:00,80.9,59.4,29.96,ENE,76,1.0,10.0,48,0.00,,BKN060,0.00,56.35,VWS V14.01,2013-08-14 23:27:00,
2013-08-14 18:32:00,80.7,58.6,29.96,ENE,67,0.0,8.0,47,0.00,,BKN060,0.00,48.30,VWS V14.01,2013-08-14 23:32:00,
2013-08-14 18:37:00,80.5,59.0,29.96,East,82,6.0,8.0,48,0.00,,BKN060,0.00,64.40,VWS V14.01,2013-08-14 23:37:00,
2013-08-14 18:42:00,80.1,58.7,29.96,ENE,75,0.0,1.0,48,0.00,,BKN060,0.00,71.30,VWS V14.01,2013-08-14 23:42:00,
2013-08-14 18:47:00,79.9,57.9,29.96,ENE,61,0.0,6.0,47,0.00,,BKN060,0.00,62.10,VWS V14.01,2013-08-14 23:47:00,
2013-08-14 18:52:00,79.7,58.3,29.96,ENE,67,0.0,10.0,48,0.00,,BKN060,0.00,52.90,VWS V14.01,2013-08-14 23:52:00,
2013-08-14 18:57:00,79.6,58.8,29.96,NE,51,8.0,10.0,49,0.00,,BKN060,0.00,48.30,VWS V14.01,2013-08-14 23:57:00,
2013-08-14 19:02:00,79.4,58.6,29.96,ENE,59,0.0,0.0,49,0.00,,CLR,0.00,46.00,VWS V14.01,2013-08-15 00:02:00,
2013-08-14 19:07:00,79.2,57.8,29.96,ENE,60,0.0,5.0,48,0.00,,CLR,0.00,46.00,VWS V14.01,2013-08-15 00:07:00,
2013-08-14 19:12:00,79.0,58.2,29.96,ENE,69,0.0,6.0,49,0.00,,CLR,0.00,40.25,VWS V14.01,2013-08-15 00:12:00,
2013-08-14 19:17:00,79.0,58.2,29.96,ENE,68,0.0,6.0,49,0.00,,CLR,0.00,40.25,VWS V14.01,2013-08-15 00:17:00,
2013-08-14 19:22:00,78.8,58.6,29.96,ENE,72,3.0,5.0,50,0.00,,CLR,0.00,40.25,VWS V14.01,2013-08-15 00:22:00,
2013-08-14 19:27:00,78.6,59.0,29.96,ENE,72,0.0,5.0,51,0.00,,CLR,0.00,42.55,VWS V14.01,2013-08-15 00:27:00,
2013-08-14 19:32:00,78.4,59.3,29.96,ENE,71,0.0,0.0,52,0.00,,CLR,0.00,36.80,VWS V14.01,2013-08-15 00:32:00,
2013-08-14 19:37:00,78.4,59.3,29.96,ENE,71,0.0,3.0,52,0.00,,CLR,0.00,28.75,VWS V14.01,2013-08-15 00:37:00,
2013-08-14 19:42:00,78.3,59.8,29.96,ENE,72,0.0,0.0,53,0.00,,CLR,0.00,24.15,VWS V14.01,2013-08-15 00:42:00,
2013-08-14 19:47:00,78.1,60.1,29.96,ENE,72,1.0,3.0,54,0.00,,CLR,0.00,21.85,VWS V14.01,2013-08-15 00:47:00,
2013-08-14 19:52:00,77.9,59.9,29.96,ENE,72,0.0,0.0,54,0.00,,CLR,0.00,16.10,VWS V14.01,2013-08-15 00:52:00,
2013-08-14 19:57:00,77.7,60.3,29.96,ENE,72,0.0,1.0,55,0.00,,CLR,0.00,12.65,VWS V14.01,2013-08-15 00:57:00,
2013-08-14 20:02:00,77.5,60.1,29.97,ENE,72,0.0,0.0,55,0.00,,CLR,0.00,8.05,VWS V14.01,2013-08-15 01:02:00,
2013-08-14 20:07:00,77.4,60.0,29.97,ENE,72,0.0,0.0,55,0.00,,CLR,0.00,5.75,VWS V14.01,2013-08-15 01:07:00,
2013-08-14 20:12:00,77.2,59.8,29.97,ENE,72,0.0,0.0,55,0.00,,CLR,0.00,0.00,VWS V14.01,2013-08-15 01:12:00,
2013-08-14 20:17:00,77.0,59.6,29.96,ENE,72,0.0,3.0,55,0.00,,CLR,0.00,0.00,VWS V14.01,2013-08-15 01:17:00,
2013-08-14 20:22:00,76.6,59.8,29.96,ENE,72,0.0,0.0,56,0.00,,CLR,0.00,0.00,VWS V14.01,2013-08-15 01:22:00,
2013-08-14 20:27:00,76.5,60.2,29.96,ENE,71,0.0,3.0,57,0.00,,CLR,0.00,0.00,VWS V14.01,2013-08-15 01:27:00,
2013-08-14 20:32:00,76.3,60.0,29.96,ENE,72,0.0,0.0,57,0.00,,CLR,0.00,0.00,VWS V14.01,2013-08-15 01:32:00,
2013-08-14 20:37:00,76.1,59.8,29.96,ENE,72,0.0,0.0,57,0.00,,CLR,0.00,0.00,VWS V14.01,2013-08-15 01:37:00,
2013-08-14 20:42:00,75.9,60.1,29.96,ENE,72,0.0,0.0,58,0.00,,CLR,0.00,0.00,VWS V14.01,2013-08-15 01:42:00,
2013-08-14 20:47:00,75.8,60.0,29.97,ENE,72,0.0,0.0,58,0.00,,CLR,0.00,0.00,VWS V14.01,2013-08-15 01:47:00,
2013-08-14 20:52:00,75.8,60.5,29.97,ENE,72,0.0,0.0,59,0.00,,CLR,0.00,0.00,VWS V14.01,2013-08-15 01:52:00,
2013-08-14 20:57:00,75.6,60.3,29.97,ENE,72,0.0,0.0,59,0.00,,CLR,0.00,0.00,VWS V14.01,2013-08-15 01:57:00,
2013-08-14 21:02:00,75.4,60.6,29.97,ENE,72,0.0,0.0,60,0.00,,CLR,0.00,0.00,VWS V14.01,2013-08-15 02:02:00,
2013-08-14 21:07:00,75.2,60.4,29.97,ENE,72,0.0,0.0,60,0.00,,CLR,0.00,0.00,VWS V14.01,2013-08-15 02:07:00,
2013-08-14 21:12:00,74.9,60.6,29.97,ENE,72,0.0,0.0,61,0.00,,CLR,0.00,0.00,VWS V14.01,2013-08-15 02:12:00,
2013-08-14 21:17:00,74.7,60.4,29.98,ENE,72,0.0,0.0,61,0.00,,CLR,0.00,0.00,VWS V14.01,2013-08-15 02:17:00,
2013-08-14 21:22:00,74.7,60.4,29.98,ENE,72,0.0,0.0,61,0.00,,CLR,0.00,0.00,VWS V14.01,2013-08-15 02:22:00,
2013-08-14 21:27:00,74.5,60.6,29.98,ENE,72,0.0,0.0,62,0.00,,CLR,0.00,0.00,VWS V14.01,2013-08-15 02:27:00,
2013-08-14 21:32:00,74.4,60.5,29.98,ENE,72,0.0,0.0,62,0.00,,CLR,0.00,0.00,VWS V14.01,2013-08-15 02:32:00,
2013-08-14 21:37:00,74.2,60.8,29.98,ENE,72,0.0,0.0,63,0.00,,CLR,0.00,0.00,VWS V14.01,2013-08-15 02:37:00,
2013-08-14 21:42:00,74.0,60.6,29.98,ENE,72,0.0,0.0,63,0.00,,CLR,0.00,0.00,VWS V14.01,2013-08-15 02:42:00,
2013-08-14 21:47:00,73.8,60.4,29.99,ENE,72,0.0,0.0,63,0.00,,CLR,0.00,0.00,VWS V14.01,2013-08-15 02:47:00,
2013-08-14 21:52:00,73.7,60.8,29.99,ENE,72,0.0,0.0,64,0.00,,CLR,0.00,0.00,VWS V14.01,2013-08-15 02:52:00,
2013-08-14 21:57:00,73.5,60.6,29.99,ENE,72,0.0,0.0,64,0.00,,CLR,0.00,0.00,VWS V14.01,2013-08-15 02:57:00,
2013-08-14 22:02:00,73.5,60.6,29.99,ENE,72,0.0,0.0,64,0.00,,CLR,0.00,0.00,VWS V14.01,2013-08-15 03:02:00,
2013-08-14 22:07:00,73.3,60.8,29.99,ENE,72,0.0,0.0,65,0.00,,CLR,0.00,0.00,VWS V14.01,2013-08-15 03:07:00,
2013-08-14 22:12:00,73.1,60.7,29.99,ENE,72,0.0,0.0,65,0.00,,CLR,0.00,0.00,VWS V14.01,2013-08-15 03:12:00,
2013-08-14 22:17:00,73.0,61.0,30.00,ENE,72,0.0,0.0,66,0.00,,CLR,0.00,0.00,VWS V14.01,2013-08-15 03:17:00,
2013-08-14 22:22:00,72.8,60.8,30.00,ENE,72,0.0,0.0,66,0.00,,CLR,0.00,0.00,VWS V14.01,2013-08-15 03:22:00,
2013-08-14 22:27:00,72.6,60.6,30.00,ENE,72,0.0,0.0,66,0.00,,CLR,0.00,0.00,VWS V14.01,2013-08-15 03:27:00,
2013-08-14 22:32:00,72.6,61.0,30.00,ENE,72,0.0,0.0,67,0.00,,CLR,0.00,0.00,VWS V14.01,2013-08-15 03:32:00,
2013-08-14 22:37:00,72.5,60.9,30.00,ENE,72,0.0,0.0,67,0.00,,CLR,0.00,0.00,VWS V14.01,2013-08-15 03:37:00,
2013-08-14 22:42:00,72.5,60.9,30.00,ENE,72,0.0,0.0,67,0.00,,CLR,0.00,0.00,VWS V14.01,2013-08-15 03:42:00,
2013-08-14 22:47:00,72.3,61.2,30.01,ENE,72,0.0,0.0,68,0.00,,CLR,0.00,0.00,VWS V14.01,2013-08-15 03:47:00,
2013-08-14 22:52:00,72.3,61.2,30.01,ENE,72,0.0,0.0,68,0.00,,CLR,0.00,0.00,VWS V14.01,2013-08-15 03:52:00,
2013-08-14 22:57:00,72.1,61.0,30.01,ENE,72,0.0,0.0,68,0.00,,CLR,0.00,0.00,VWS V14.01,2013-08-15 03:57:00,
2013-08-14 23:01:00,71.9,60.8,30.01,ENE,72,0.0,0.0,68,0.00,,CLR,0.00,0.00,VWS V14.01,2013-08-15 04:01:00,
2013-08-14 23:06:00,71.9,60.8,30.01,ENE,72,0.0,0.0,68,0.00,,CLR,0.00,0.00,VWS V14.01,2013-08-15 04:06:00,
2013-08-14 23:11:00,71.8,60.7,30.01,ENE,72,0.0,0.0,68,0.00,,CLR,0.00,0.00,VWS V14.01,2013-08-15 04:11:00,
2013-08-14 23:16:00,71.6,60.9,30.01,ENE,72,0.0,0.0,69,0.00,,CLR,0.00,0.00,VWS V14.01,2013-08-15 04:16:00,
2013-08-14 23:21:00,71.4,60.7,30.01,ENE,72,0.0,0.0,69,0.00,,CLR,0.00,0.00,VWS V14.01,2013-08-15 04:21:00,
2013-08-14 23:26:00,71.3,61.0,30.01,ENE,72,0.0,0.0,70,0.00,,CLR,0.00,0.00,VWS V14.01,2013-08-15 04:26:00,
2013-08-14 23:31:00,71.1,60.8,30.01,ENE,72,0.0,0.0,70,0.00,,CLR,0.00,0.00,VWS V14.01,2013-08-15 04:31:00,
2013-08-14 23:36:00,70.9,61.0,30.01,ENE,72,0.0,0.0,71,0.00,,CLR,0.00,0.00,VWS V14.01,2013-08-15 04:36:00,
2013-08-14 23:41:00,70.7,60.8,30.01,ENE,72,0.0,0.0,71,0.00,,CLR,0.00,0.00,VWS V14.01,2013-08-15 04:41:00,
2013-08-14 23:46:00,70.7,60.8,30.01,ENE,72,0.0,1.0,71,0.00,,CLR,0.00,0.00,VWS V14.01,2013-08-15 04:46:00,
2013-08-14 23:51:00,70.6,60.8,30.01,ENE,72,0.0,0.0,71,0.00,,CLR,0.00,0.00,VWS V14.01,2013-08-15 04:51:00,
2013-08-14 23:56:00,70.4,61.0,30.01,ENE,72,0.0,0.0,72,0.00,,CLR,0.00,0.00,VWS V14.01,2013-08-15 04:56:00,